This demonstration page uses our WeatherBlox Daily Observations layout. Learn more.

Left ArrowRight Arrow

36.17497, -115.13722

Hourly Observations for May 30, 2016

Temp ( °F °C ) Dew Point ( °F °C ) Humidity (%) Winds ( mph kmh ) Pressure ( in mb ) Visibility ( mi km ) Precip ( " mm )
12:53 am 00:53 Clear 74 23.3 28 -2.2 18 18 N 5 7 29.88 1012 10 16 N/A
1:53 am 01:53 Clear 73 22.8 26 -3.3 17 17 N 5 7 29.87 1012 10 16 N/A
2:53 am 02:53 Clear 71 21.7 27 -2.8 19 19 NNE 5 7 29.87 1012 10 16 N/A
3:53 am 03:53 Clear 69 20.6 28 -2.2 22 22 NW 5 7 29.88 1012 10 16 N/A
4:53 am 04:53 Clear 69 20.6 29 -1.7 22 22 NW 6 9 29.88 1012 10 16 N/A
5:53 am 05:53 Sunny 71 21.7 26 -3.3 19 19 NNW 8 13 29.88 1012 10 16 N/A
6:53 am 06:53 Sunny 72 22.2 30 -1.1 21 21 S 6 9 29.91 1013 10 16 N/A
7:53 am 07:53 Sunny 77 25 29 -1.7 17 17 N N/A 29.91 1013 10 16 N/A
8:53 am 08:53 Sunny 81 27.2 29 -1.7 15 15 N 7 11 29.91 1013 10 16 N/A
9:53 am 09:53 Sunny 82 27.8 30 -1.1 15 15 SE 5 7 29.92 1013 10 16 N/A
10:53 am 10:53 Sunny 86 30 31 -0.6 14 14 NE 3 6 29.91 1013 10 16 N/A
11:53 am 11:53 Sunny 88 31.1 28 -2.2 11 11 N N/A 29.89 1012 10 16 N/A
12:53 pm 12:53 Sunny 90 32.2 28 -2.2 11 11 ENE 8 13 29.87 1012 10 16 N/A
1:53 pm 13:53 Sunny 91 32.8 30 -1.1 11 11 SE 7 11 29.85 1011 10 16 N/A
2:53 pm 14:53 Sunny 93 33.9 31 -0.6 11 11 N N/A 29.82 1010 10 16 N/A
3:53 pm 15:53 Sunny 94 34.4 31 -0.6 11 11 SW 8 13 29.79 1009 10 16 N/A
4:53 pm 16:53 Sunny 94 34.4 31 -0.6 11 11 N 5 7 29.79 1009 10 16 N/A
5:53 pm 17:53 Sunny 93 33.9 31 -0.6 11 11 SE 13 20 29.77 1008 10 16 N/A
6:53 pm 18:53 Sunny 91 32.8 30 -1.1 11 11 SE 3 6 29.77 1008 10 16 N/A
7:53 pm 19:53 Clear 90 32.2 31 -0.6 12 12 SSE 7 11 29.76 1008 10 16 N/A
8:53 pm 20:53 Clear 90 32.2 32 undefined 13 13 N N/A 29.78 1008 10 16 N/A
9:53 pm 21:53 Clear 87 30.6 33 0.6 14 14 WSW 5 7 29.78 1008 10 16 N/A
10:53 pm 22:53 Clear 85 29.4 33 0.6 15 15 NE 5 7 29.79 1009 10 16 N/A
11:53 pm 23:53 Clear 84 28.9 36 2.2 18 18 NW 6 9 29.78 1008 10 16 N/A

Powered by AerisWeather